AAL467 KDCA-KTPA

Flight info

Callsign AAL467
Flight time 1h 54m
Altitude 32000
Route JDUBB4 RRSIN GSO Q75 TEUFL BAAMF DADES2
Aircraft B738/M-SDE2E3FGHIRWXY/LB1

Departure

Time 2026-04-30 13:05
Airport Ronald Reagan Washington National Airport (KDCA)

Arrival

Time 2026-04-30 15:00
Airport Tampa International Airport (KTPA)
Time Latitude Longitude Altitude Speed Heading
2026-04-30 12:44 38.85553 -77.04272 23 ft 0 kts 338°
2026-04-30 12:56 38.85543 -77.04267 23 ft 2 kts 342°
2026-04-30 12:57 38.85525 -77.04263 23 ft 3 kts
2026-04-30 12:57 38.85506 -77.04268 23 ft 3 kts 20°
2026-04-30 12:57 38.85494 -77.04275 23 ft 0 kts 36°
2026-04-30 12:59 38.85507 -77.04245 23 ft 12 kts 80°
2026-04-30 13:00 38.85525 -77.04118 23 ft 14 kts 70°
2026-04-30 13:00 38.85520 -77.04014 23 ft 12 kts 127°
2026-04-30 13:00 38.85444 -77.03953 23 ft 13 kts 166°
2026-04-30 13:00 38.85346 -77.03937 23 ft 16 kts 175°
2026-04-30 13:01 38.85235 -77.03925 23 ft 16 kts 174°
2026-04-30 13:01 38.85128 -77.03913 23 ft 15 kts 175°
2026-04-30 13:01 38.85023 -77.03904 23 ft 15 kts 177°
2026-04-30 13:01 38.84921 -77.03894 23 ft 14 kts 174°
2026-04-30 13:02 38.84826 -77.03882 23 ft 14 kts 176°
2026-04-30 13:02 38.84730 -77.03874 23 ft 14 kts 176°
2026-04-30 13:02 38.84637 -77.03865 23 ft 14 kts 175°
2026-04-30 13:02 38.84544 -77.03855 23 ft 14 kts 175°
2026-04-30 13:03 38.84449 -77.03846 23 ft 13 kts 176°
2026-04-30 13:03 38.84360 -77.03840 23 ft 13 kts 176°
2026-04-30 13:03 38.84272 -77.03833 23 ft 12 kts 176°
2026-04-30 13:03 38.84206 -77.03777 23 ft 12 kts 119°
2026-04-30 13:04 38.84182 -77.03686 23 ft 8 kts 70°
2026-04-30 13:04 38.84205 -77.03676 23 ft 3 kts 347°
2026-04-30 13:04 38.84355 -77.03695 23 ft 54 kts 355°
2026-04-30 13:04 38.84973 -77.03758 23 ft 122 kts 354°
2026-04-30 13:05 38.86011 -77.03867 94 ft 171 kts 358°
2026-04-30 13:05 38.87239 -77.04044 636 ft 189 kts 347°
2026-04-30 13:05 38.88493 -77.04825 1188 ft 212 kts 332°
2026-04-30 13:06 38.90557 -77.07438 2783 ft 218 kts 297°
2026-04-30 13:06 38.91292 -77.09241 3338 ft 238 kts 295°
2026-04-30 13:06 38.92232 -77.10999 4235 ft 241 kts 310°
2026-04-30 13:06 38.93493 -77.12437 5147 ft 244 kts 320°
2026-04-30 13:07 38.94873 -77.13686 6108 ft 241 kts 323°
2026-04-30 13:07 38.96248 -77.14887 7079 ft 239 kts 324°
2026-04-30 13:07 38.97627 -77.16055 8029 ft 236 kts 323°
2026-04-30 13:07 38.98795 -77.17584 8553 ft 249 kts 301°
2026-04-30 13:08 38.99341 -77.19740 9107 ft 261 kts 276°
2026-04-30 13:08 38.99292 -77.22094 9889 ft 266 kts 265°
2026-04-30 13:08 38.99015 -77.24458 10704 ft 270 kts 264°
2026-04-30 13:08 38.98569 -77.26865 11212 ft 289 kts 251°
2026-04-30 13:09 38.97413 -77.29107 11561 ft 316 kts 230°
2026-04-30 13:09 38.95589 -77.30781 11946 ft 341 kts 210°
2026-04-30 13:09 38.93279 -77.31717 12593 ft 354 kts 197°
2026-04-30 13:09 38.90848 -77.32359 13317 ft 358 kts 197°
2026-04-30 13:10 38.88419 -77.33136 14056 ft 361 kts 200°
2026-04-30 13:10 38.86013 -77.34081 14787 ft 363 kts 203°
2026-04-30 13:10 38.83620 -77.35148 15482 ft 366 kts 204°
2026-04-30 13:10 38.81221 -77.36290 16168 ft 369 kts 205°
2026-04-30 13:11 38.78810 -77.37457 16835 ft 372 kts 205°
2026-04-30 13:11 38.76375 -77.38644 17470 ft 376 kts 205°
2026-04-30 13:11 38.73915 -77.39849 18107 ft 380 kts 206°
2026-04-30 13:11 38.71441 -77.41062 18733 ft 383 kts 206°
2026-04-30 13:12 38.68944 -77.42298 19360 ft 385 kts 206°
2026-04-30 13:12 38.66436 -77.43552 19953 ft 389 kts 206°
2026-04-30 13:12 38.63901 -77.44807 20553 ft 392 kts 205°
2026-04-30 13:13 38.58767 -77.47331 21660 ft 398 kts 205°
2026-04-30 13:13 38.56171 -77.48604 22214 ft 401 kts 205°
2026-04-30 13:13 38.50925 -77.51171 23236 ft 407 kts 205°
2026-04-30 13:14 38.48272 -77.52467 23744 ft 409 kts 205°
2026-04-30 13:14 38.45608 -77.53769 24222 ft 412 kts 205°
2026-04-30 13:14 38.40308 -77.56530 25168 ft 414 kts 210°
2026-04-30 13:15 38.37784 -77.58296 25626 ft 413 kts 216°
2026-04-30 13:15 38.33008 -77.62390 26507 ft 415 kts 218°
2026-04-30 13:15 38.30611 -77.64456 26930 ft 417 kts 219°
2026-04-30 13:16 38.28292 -77.66667 27348 ft 416 kts 223°
2026-04-30 13:16 38.26073 -77.69042 27740 ft 417 kts 225°
2026-04-30 13:16 38.24630 -77.70653 28000 ft 418 kts 225°
2026-04-30 13:17 38.20196 -77.75502 28744 ft 422 kts 225°
2026-04-30 13:17 38.17955 -77.77907 29241 ft 419 kts 224°
2026-04-30 13:17 38.13529 -77.82634 30289 ft 414 kts 225°
2026-04-30 13:18 38.11320 -77.84988 30630 ft 415 kts 225°
2026-04-30 13:18 38.06891 -77.89704 31397 ft 415 kts 224°
2026-04-30 13:18 38.04707 -77.92029 31746 ft 415 kts 224°
2026-04-30 13:19 38.02497 -77.94379 32129 ft 415 kts 224°
2026-04-30 13:19 38.00276 -77.96734 32327 ft 418 kts 224°
2026-04-30 13:19 37.95739 -78.01538 32352 ft 430 kts 224°
2026-04-30 13:20 37.91109 -78.06433 32350 ft 434 kts 224°
2026-04-30 13:20 37.86486 -78.11313 32348 ft 432 kts 224°
2026-04-30 13:21 37.81869 -78.16180 32348 ft 432 kts 224°
2026-04-30 13:22 37.74952 -78.23501 32339 ft 433 kts 224°
2026-04-30 13:22 37.68064 -78.30805 32343 ft 433 kts 224°
2026-04-30 13:23 37.61112 -78.38098 32348 ft 433 kts 224°
2026-04-30 13:24 37.51818 -78.47799 32343 ft 433 kts 224°
2026-04-30 13:25 37.42517 -78.57453 32337 ft 434 kts 224°
2026-04-30 13:26 37.30845 -78.69442 32337 ft 434 kts 224°
2026-04-30 13:28 37.19177 -78.81414 32337 ft 434 kts 224°
2026-04-30 13:28 37.12172 -78.88641 32337 ft 435 kts 224°
2026-04-30 13:29 37.02779 -78.98202 32339 ft 435 kts 224°
2026-04-30 13:31 36.91069 -79.10131 32343 ft 435 kts 224°
2026-04-30 13:32 36.79352 -79.22100 32347 ft 435 kts 224°
2026-04-30 13:33 36.69967 -79.31652 32349 ft 436 kts 224°
2026-04-30 13:34 36.62939 -79.38850 32349 ft 435 kts 224°
2026-04-30 13:35 36.53574 -79.48373 32350 ft 435 kts 224°
2026-04-30 13:36 36.44166 -79.57893 32349 ft 437 kts 224°
2026-04-30 13:36 36.37100 -79.65023 32348 ft 436 kts 224°
2026-04-30 13:37 36.30023 -79.72147 32346 ft 437 kts 224°
2026-04-30 13:38 36.22958 -79.79277 32343 ft 437 kts 223°
2026-04-30 13:39 36.13524 -79.88703 32341 ft 437 kts 223°
2026-04-30 13:40 36.06354 -79.95691 32340 ft 440 kts 219°
2026-04-30 13:40 36.00966 -79.99362 32344 ft 446 kts 209°
2026-04-30 13:41 35.95206 -80.02281 32347 ft 448 kts 206°
2026-04-30 13:41 35.89408 -80.05113 32350 ft 448 kts 206°
2026-04-30 13:42 35.83652 -80.07934 32353 ft 448 kts 206°
2026-04-30 13:42 35.74965 -80.12193 32358 ft 448 kts 206°
2026-04-30 13:43 35.69165 -80.15053 32361 ft 448 kts 207°
2026-04-30 13:43 35.63374 -80.17906 32364 ft 448 kts 207°
2026-04-30 13:44 35.57579 -80.20748 32368 ft 449 kts 207°
2026-04-30 13:44 35.51812 -80.23569 32374 ft 449 kts 207°
2026-04-30 13:45 35.43063 -80.27840 32387 ft 449 kts 207°
2026-04-30 13:46 35.37282 -80.30656 32388 ft 450 kts 207°
2026-04-30 13:46 35.31470 -80.33483 32382 ft 450 kts 207°
2026-04-30 13:47 35.25641 -80.36314 32380 ft 450 kts 207°
2026-04-30 13:47 35.19803 -80.39144 32377 ft 450 kts 207°
2026-04-30 13:48 35.14004 -80.41951 32371 ft 450 kts 207°
2026-04-30 13:48 35.08171 -80.44771 32367 ft 450 kts 207°
2026-04-30 13:49 35.02346 -80.47583 32364 ft 450 kts 208°
2026-04-30 13:49 34.96504 -80.50398 32363 ft 451 kts 208°
2026-04-30 13:50 34.90658 -80.53225 32363 ft 451 kts 208°
2026-04-30 13:50 34.81896 -80.57433 32365 ft 451 kts 208°
2026-04-30 13:51 34.76056 -80.60227 32368 ft 451 kts 208°
2026-04-30 13:51 34.70247 -80.63002 32366 ft 451 kts 208°
2026-04-30 13:52 34.64671 -80.66346 32365 ft 441 kts 219°
2026-04-30 13:52 34.59851 -80.70836 32365 ft 434 kts 227°
2026-04-30 13:53 34.55356 -80.75722 32365 ft 433 kts 229°
2026-04-30 13:53 34.50890 -80.80629 32370 ft 433 kts 228°
2026-04-30 13:54 34.46419 -80.85479 32371 ft 434 kts 228°
2026-04-30 13:54 34.41914 -80.90346 32372 ft 434 kts 228°
2026-04-30 13:55 34.37400 -80.95216 32372 ft 435 kts 228°
2026-04-30 13:55 34.32762 -80.99960 32372 ft 442 kts 222°
2026-04-30 13:56 34.27229 -81.03436 32380 ft 456 kts 208°
2026-04-30 13:56 34.21171 -81.05851 32380 ft 460 kts 204°
2026-04-30 13:57 34.15047 -81.08138 32381 ft 460 kts 204°
2026-04-30 13:57 34.08940 -81.10455 32381 ft 460 kts 205°
2026-04-30 13:58 33.99779 -81.13948 32370 ft 461 kts 205°
2026-04-30 13:59 33.93676 -81.16292 32371 ft 459 kts 205°
2026-04-30 13:59 33.87628 -81.18607 32369 ft 460 kts 205°
2026-04-30 14:00 33.81522 -81.20937 32367 ft 461 kts 205°
2026-04-30 14:00 33.72351 -81.24428 32360 ft 460 kts 205°
2026-04-30 14:01 33.66240 -81.26750 32357 ft 460 kts 205°
2026-04-30 14:01 33.60128 -81.29068 32356 ft 460 kts 205°
2026-04-30 14:02 33.54018 -81.31394 32358 ft 460 kts 205°
2026-04-30 14:02 33.47906 -81.33705 32360 ft 460 kts 204°
2026-04-30 14:03 33.41829 -81.35996 32360 ft 460 kts 204°
2026-04-30 14:03 33.35717 -81.38297 32362 ft 460 kts 204°
2026-04-30 14:04 33.29607 -81.40595 32361 ft 460 kts 204°
2026-04-30 14:04 33.23551 -81.43027 32364 ft 458 kts 207°
2026-04-30 14:05 33.17572 -81.45655 32365 ft 458 kts 207°
2026-04-30 14:05 33.11583 -81.48228 32366 ft 457 kts 206°
2026-04-30 14:06 33.03608 -81.51626 32366 ft 457 kts 206°
2026-04-30 14:07 32.94619 -81.55447 32367 ft 457 kts 206°
2026-04-30 14:08 32.85679 -81.59374 32368 ft 456 kts 207°
2026-04-30 14:08 32.76791 -81.63412 32369 ft 456 kts 207°
2026-04-30 14:09 32.70857 -81.66092 32370 ft 456 kts 207°
2026-04-30 14:10 32.61957 -81.70103 32371 ft 456 kts 206°
2026-04-30 14:10 32.56017 -81.72788 32372 ft 457 kts 206°
2026-04-30 14:11 32.50118 -81.75450 32370 ft 457 kts 206°
2026-04-30 14:11 32.44180 -81.78123 32372 ft 456 kts 206°
2026-04-30 14:12 32.38238 -81.80800 32374 ft 457 kts 206°
2026-04-30 14:12 32.32277 -81.83468 32373 ft 457 kts 206°
2026-04-30 14:13 32.26328 -81.86125 32373 ft 457 kts 206°
2026-04-30 14:13 32.20372 -81.88782 32372 ft 457 kts 206°
2026-04-30 14:14 32.14410 -81.91438 32372 ft 458 kts 206°
2026-04-30 14:14 32.08373 -81.93778 32373 ft 461 kts 202°
2026-04-30 14:15 32.02245 -81.96008 32372 ft 460 kts 202°
2026-04-30 14:15 31.96139 -81.98279 32372 ft 460 kts 202°
2026-04-30 14:16 31.90032 -82.00557 32372 ft 460 kts 202°
2026-04-30 14:16 31.83923 -82.02838 32370 ft 460 kts 202°
2026-04-30 14:17 31.77815 -82.05120 32369 ft 460 kts 202°
2026-04-30 14:17 31.71707 -82.07402 32369 ft 460 kts 202°
2026-04-30 14:18 31.65484 -82.09203 32369 ft 465 kts 196°
2026-04-30 14:18 31.55946 -82.11398 32369 ft 466 kts 196°
2026-04-30 14:19 31.46410 -82.13591 32368 ft 465 kts 196°
2026-04-30 14:20 31.40050 -82.15053 32368 ft 466 kts 195°
2026-04-30 14:20 31.30511 -82.17243 32367 ft 465 kts 195°
2026-04-30 14:21 31.24158 -82.18700 32367 ft 465 kts 195°
2026-04-30 14:22 31.14615 -82.20884 32365 ft 466 kts 195°
2026-04-30 14:22 31.05076 -82.23071 32364 ft 465 kts 195°
2026-04-30 14:23 30.92357 -82.25984 32367 ft 465 kts 195°
2026-04-30 14:24 30.82856 -82.28145 32366 ft 465 kts 195°
2026-04-30 14:25 30.70138 -82.31031 32361 ft 465 kts 195°
2026-04-30 14:26 30.60512 -82.32668 32360 ft 468 kts 189°
2026-04-30 14:27 30.50796 -82.33776 32360 ft 467 kts 189°
2026-04-30 14:27 30.44378 -82.34570 32357 ft 467 kts 190°
2026-04-30 14:28 30.34702 -82.35772 32357 ft 466 kts 190°
2026-04-30 14:28 30.28241 -82.36573 32355 ft 466 kts 190°
2026-04-30 14:29 30.16395 -82.37860 32354 ft 469 kts 184°
2026-04-30 14:31 29.98984 -82.36949 32356 ft 470 kts 180°
2026-04-30 14:31 29.89188 -82.36398 32357 ft 469 kts 180°
2026-04-30 14:32 29.79500 -82.35858 32355 ft 449 kts 181°
2026-04-30 14:33 29.73373 -82.35518 32357 ft 435 kts 181°
2026-04-30 14:33 29.67346 -82.35185 31996 ft 430 kts 181°
2026-04-30 14:33 29.64378 -82.35021 31626 ft 425 kts 181°
2026-04-30 14:34 29.61434 -82.34858 31201 ft 422 kts 181°
2026-04-30 14:34 29.58504 -82.34696 30777 ft 420 kts 181°
2026-04-30 14:34 29.55591 -82.34543 30360 ft 418 kts 181°
2026-04-30 14:34 29.52699 -82.34378 29952 ft 416 kts 181°
2026-04-30 14:35 29.47914 -82.34112 29261 ft 412 kts 181°
2026-04-30 14:35 29.44092 -82.33901 28703 ft 409 kts 181°
2026-04-30 14:35 29.41254 -82.33745 28288 ft 406 kts 181°
2026-04-30 14:36 29.38435 -82.33547 27873 ft 405 kts 178°
2026-04-30 14:36 29.35637 -82.33226 27459 ft 403 kts 176°
2026-04-30 14:36 29.32854 -82.32859 27047 ft 401 kts 176°
2026-04-30 14:36 29.30123 -82.32508 26642 ft 399 kts 176°
2026-04-30 14:37 29.27375 -82.32166 26232 ft 396 kts 176°
2026-04-30 14:37 29.24641 -82.31831 25823 ft 394 kts 176°
2026-04-30 14:37 29.21918 -82.31501 25416 ft 392 kts 176°
2026-04-30 14:37 29.19217 -82.31177 25010 ft 389 kts 176°
2026-04-30 14:38 29.16527 -82.30855 24605 ft 387 kts 176°
2026-04-30 14:38 29.13860 -82.30536 24201 ft 384 kts 176°
2026-04-30 14:38 29.11206 -82.30220 23798 ft 382 kts 176°
2026-04-30 14:38 29.08570 -82.29907 23397 ft 380 kts 176°
2026-04-30 14:39 29.05944 -82.29593 22995 ft 378 kts 176°
2026-04-30 14:39 29.03330 -82.29279 22593 ft 376 kts 176°
2026-04-30 14:39 29.00736 -82.28969 22192 ft 374 kts 176°
2026-04-30 14:40 28.95617 -82.28361 21400 ft 370 kts 176°
2026-04-30 14:40 28.93066 -82.28059 21006 ft 368 kts 176°
2026-04-30 14:40 28.90518 -82.27757 20612 ft 366 kts 176°
2026-04-30 14:40 28.87988 -82.27458 20220 ft 364 kts 176°
2026-04-30 14:41 28.85472 -82.27161 19829 ft 363 kts 176°
2026-04-30 14:41 28.82967 -82.26864 19440 ft 361 kts 176°
2026-04-30 14:41 28.80473 -82.26569 19053 ft 360 kts 176°
2026-04-30 14:41 28.77988 -82.26275 18666 ft 358 kts 176°
2026-04-30 14:42 28.75517 -82.25984 18282 ft 356 kts 176°
2026-04-30 14:42 28.73053 -82.25724 17896 ft 354 kts 179°
2026-04-30 14:42 28.70599 -82.25668 17513 ft 352 kts 182°
2026-04-30 14:42 28.68154 -82.25690 17136 ft 350 kts 182°
2026-04-30 14:43 28.65721 -82.25670 16812 ft 347 kts 181°
2026-04-30 14:43 28.63312 -82.25639 16467 ft 345 kts 181°
2026-04-30 14:43 28.60923 -82.25592 16123 ft 342 kts 181°
2026-04-30 14:43 28.58544 -82.25546 15760 ft 341 kts 180°
2026-04-30 14:44 28.56177 -82.25500 15413 ft 339 kts 180°
2026-04-30 14:44 28.53856 -82.25456 15056 ft 337 kts 180°
2026-04-30 14:44 28.51516 -82.25415 14726 ft 335 kts 181°
2026-04-30 14:44 28.49193 -82.25386 14365 ft 333 kts 181°
2026-04-30 14:45 28.46882 -82.25356 14008 ft 332 kts 180°
2026-04-30 14:45 28.44579 -82.25326 13675 ft 330 kts 180°
2026-04-30 14:45 28.42294 -82.25296 13337 ft 328 kts 180°
2026-04-30 14:45 28.40017 -82.25266 12986 ft 326 kts 180°
2026-04-30 14:46 28.37757 -82.25353 12626 ft 324 kts 190°
2026-04-30 14:46 28.35634 -82.26123 12297 ft 318 kts 208°
2026-04-30 14:46 28.33767 -82.27433 11957 ft 315 kts 219°
2026-04-30 14:46 28.32641 -82.28463 11715 ft 313 kts 222°
2026-04-30 14:47 28.30469 -82.30661 11224 ft 312 kts 225°
2026-04-30 14:47 28.28896 -82.32339 11044 ft 307 kts 223°
2026-04-30 14:47 28.27274 -82.33890 10863 ft 301 kts 221°
2026-04-30 14:47 28.25668 -82.35363 10657 ft 296 kts 221°
2026-04-30 14:48 28.24089 -82.36845 10404 ft 292 kts 221°
2026-04-30 14:48 28.22539 -82.38316 10154 ft 289 kts 221°
2026-04-30 14:48 28.20990 -82.39750 9900 ft 286 kts 217°
2026-04-30 14:48 28.19219 -82.40757 9640 ft 284 kts 198°
2026-04-30 14:49 28.17319 -82.41185 9397 ft 281 kts 186°
2026-04-30 14:49 28.15372 -82.41303 9147 ft 278 kts 180°
2026-04-30 14:49 28.13446 -82.41285 8897 ft 276 kts 178°
2026-04-30 14:49 28.11532 -82.41275 8645 ft 273 kts 179°
2026-04-30 14:50 28.07761 -82.41329 8141 ft 268 kts 180°
2026-04-30 14:50 28.05906 -82.41370 7890 ft 266 kts 180°
2026-04-30 14:51 28.02879 -82.41441 7373 ft 256 kts 180°
2026-04-30 14:51 28.00530 -82.41498 6770 ft 250 kts 180°
2026-04-30 14:51 27.97670 -82.41565 6020 ft 244 kts 180°
2026-04-30 14:52 27.95442 -82.41610 5420 ft 240 kts 179°
2026-04-30 14:52 27.92671 -82.41668 4663 ft 235 kts 179°
2026-04-30 14:52 27.91042 -82.41702 4208 ft 232 kts 179°
2026-04-30 14:53 27.87839 -82.41784 3328 ft 228 kts 179°
2026-04-30 14:53 27.86268 -82.41997 2874 ft 229 kts 196°
2026-04-30 14:54 27.84349 -82.44448 2566 ft 205 kts 250°
2026-04-30 14:54 27.83549 -82.47445 2558 ft 198 kts 263°
2026-04-30 14:55 27.83346 -82.50546 2628 ft 200 kts 273°
2026-04-30 14:55 27.83311 -82.52112 2608 ft 199 kts 273°
2026-04-30 14:55 27.84563 -82.54834 2277 ft 158 kts 354°
2026-04-30 14:56 27.86238 -82.54673 2022 ft 137 kts 10°
2026-04-30 14:56 27.88087 -82.54525 1629 ft 132 kts
2026-04-30 14:57 27.89001 -82.54485 1457 ft 134 kts
2026-04-30 14:57 27.90924 -82.54416 1091 ft 138 kts
2026-04-30 14:58 27.92815 -82.54351 730 ft 134 kts
2026-04-30 14:58 27.93749 -82.54320 551 ft 134 kts
2026-04-30 14:58 27.95606 -82.54255 204 ft 134 kts
2026-04-30 14:59 27.97337 -82.54198 35 ft 94 kts
2026-04-30 15:00 27.97910 -82.54099 34 ft 9 kts 89°
2026-04-30 15:00 27.97825 -82.53980 34 ft 10 kts 148°
2026-04-30 15:01 27.97760 -82.53974 34 ft 2 kts 181°
2026-04-30 15:01 27.97718 -82.53973 34 ft 6 kts 175°
2026-04-30 15:01 27.97654 -82.53948 34 ft 4 kts 89°
2026-04-30 15:02 27.97663 -82.53919 34 ft 4 kts 58°
2026-04-30 15:02 27.97678 -82.53892 34 ft 2 kts 57°
2026-04-30 15:03 27.97681 -82.53886 34 ft 0 kts 58°